| DS18B20 | SHTC3 | PZEM-004T | WiFi | ||||||||
|---|---|---|---|---|---|---|---|---|---|---|---|
| ID | Date d/m/Y & Time | data1 สูง | data2 ต่ำ | data3 นอก | temp pcb | hum pcb | Volt | Amp | Watt | rssi | Time |
| 12296 | 13/08/2026 18:56:48 | 31.8  | 31.8  | 30.8  | 32.8  | 66.6  | 226.0  | 0.04  | 4.6  | -76  | 18:56 |
| 12295 | 13/08/2026 18:52:04 | 31.9  | 31.8  | 30.9  | 32.9  | 66.9  | 226.0  | 0.04  | 4.6  | -80  | 18:52 |
| 12294 | 13/08/2026 18:47:21 | 31.9  | 31.8  | 31.0  | 32.9  | 67.2  | 223.4  | 0.05  | 4.6  | -77  | 18:47 |
| 12293 | 13/08/2026 18:42:38 | 32.0  | 31.8  | 31.0  | 32.9  | 67.2  | 226.5  | 0.04  | 4.4  | -78  | 18:42 |
| 12292 | 13/08/2026 18:37:55 | 31.9  | 31.8  | 31.0  | 32.8  | 66.7  | 230.8  | 0.04  | 4.6  | -79  | 18:37 |
| 12291 | 13/08/2026 18:33:11 | 31.9  | 31.8  | 30.9  | 33.0  | 65.9  | 231.0  | 0.04  | 4.6  | -78  | 18:33 |
| 12290 | 13/08/2026 18:28:28 | 31.9  | 31.8  | 31.0  | 33.0  | 66.0  | 228.7  | 0.04  | 4.6  | -77  | 18:28 |
| 12289 | 13/08/2026 18:23:45 | 31.9  | 31.8  | 31.0  | 32.8  | 65.8  | 230.4  | 0.04  | 4.6  | -75  | 18:23 |
| 12288 | 13/08/2026 18:19:02 | 31.9  | 31.8  | 31.0  | 33.0  | 65.8  | 229.8  | 0.04  | 4.6  | -76  | 18:19 |
| 12287 | 13/08/2026 18:14:18 | 32.0  | 31.8  | 31.0  | 32.8  | 65.8  | 230.0  | 0.04  | 4.6  | -78  | 18:14 |
| 12286 | 13/08/2026 18:09:35 | 32.0  | 31.8  | 31.2  | 33.0  | 65.8  | 230.6  | 0.04  | 4.6  | -78  | 18:09 |
| 12285 | 13/08/2026 18:04:51 | 32.0  | 31.9  | 31.2  | 33.0  | 66.0  | 229.0  | 0.04  | 4.6  | -78  | 18:04 |
| 12284 | 13/08/2026 18:00:07 | 32.0  | 31.9  | 31.2  | 33.0  | 65.9  | 231.5  | 0.04  | 4.6  | -78  | 18:00 |
| 12283 | 13/08/2026 17:55:24 | 32.0  | 31.9  | 31.1  | 32.9  | 65.8  | 232.0  | 0.04  | 4.6  | -77  | 17:55 |
| 12282 | 13/08/2026 17:50:40 | 32.0  | 31.9  | 31.0  | 33.0  | 65.9  | 232.1  | 0.04  | 4.6  | -77  | 17:50 |
| 12281 | 13/08/2026 17:45:57 | 32.1  | 31.9  | 31.0  | 33.0  | 65.8  | 232.0  | 0.04  | 4.6  | -77  | 17:45 |
| 12280 | 13/08/2026 17:41:14 | 32.1  | 31.9  | 31.0  | 33.0  | 65.8  | 230.0  | 0.04  | 4.6  | -75  | 17:41 |
| 12279 | 13/08/2026 17:36:31 | 32.1  | 31.9  | 31.2  | 33.0  | 65.7  | 231.7  | 0.04  | 4.6  | -75  | 17:36 |
| 12278 | 13/08/2026 17:31:47 | 32.1  | 31.9  | 31.3  | 33.0  | 66.0  | 232.2  | 0.04  | 4.6  | -77  | 17:31 |
| 12277 | 13/08/2026 17:27:03 | 32.1  | 31.9  | 31.4  | 33.1  | 65.9  | 228.0  | 0.04  | 4.6  | -75  | 17:27 |
| 12276 | 13/08/2026 17:22:20 | 32.1  | 31.9  | 31.5  | 33.1  | 65.8  | 231.5  | 0.04  | 4.6  | -75  | 17:22 |
| 12275 | 13/08/2026 17:17:37 | 32.1  | 31.9  | 31.7  | 33.2  | 65.8  | 229.7  | 0.04  | 4.6  | -76  | 17:17 |
| 12274 | 13/08/2026 17:12:53 | 32.1  | 31.9  | 31.7  | 33.0  | 65.6  | 231.8  | 0.04  | 4.6  | -77  | 17:12 |
| 12273 | 13/08/2026 17:08:10 | 32.1  | 31.9  | 31.6  | 33.1  | 65.7  | 232.0  | 0.04  | 4.6  | -77  | 17:08 |